Regional Weather Roundup
Issued by NWS

Home | Current Version | Previous Version | Graphics & Text | Print | Product List | Glossary On
Versions: 1 2 3 4 5 6 7 8 9 10 11 12 13 14 15 16 17 18 19 20 21 22 23 24 25 26 27 28 29 30 31 32 33 34 35 36 37 38 39 40 41 42 43 44 45 46 47 48 49 50
000
ASUS43 KTOP 220559
RWRKS

WEATHER ROUNDUP FOR KANSAS
NATIONAL WEATHER SERVICE GOODLAND KS
1200 AM CST WED FEB 22 2017

NOTE:  "FAIR" INDICATES FEW OR NO CLOUDS BELOW 12,000 FEET WITH NO
SIGNIFICANT WEATHER AND/OR OBSTRUCTIONS TO VISIBILITY.

KSZ001>006-013>018-027>032-041>047-220700-
NORTHWEST KANSAS

CITY           SKY/WX    TMP DP  RH WIND       PRES   REMARKS
GOODLAND       CLOUDY    55  15  20 W16       29.84F
6HR MIN TEMP:  53; 6HR MAX TEMP:  73;

HAYS             N/A     49  25  39 SW6       29.84F
HILL CITY      CLEAR     56  25  30 SW8       29.81F
6HR MIN TEMP:  51; 6HR MAX TEMP:  74;

RUSSELL        CLOUDY    50  28  42 S13       29.82F
6HR MIN TEMP:  47; 6HR MAX TEMP:  71;

$$

KSZ061>065-074>080-084>089-220700-
SOUTHWEST KANSAS

CITY           SKY/WX    TMP DP  RH WIND       PRES   REMARKS
DODGE CITY     CLEAR     44  23  43 S10       29.88F
6HR MIN TEMP:  44; 6HR MAX TEMP:  70;

ELKHART          N/A    N/A N/A N/A MISG        N/A
GARDEN CITY    CLEAR     49  22  34 S8        29.89F
6HR MIN TEMP:  46; 6HR MAX TEMP:  76;

GREAT BEND     CLEAR     47  33  58 S12       29.86F
LIBERAL        CLEAR     48  23  37 SW6       29.91F
$$

KSZ066>073-081>083-090>101-220700-
SOUTHEAST KANSAS

CITY           SKY/WX    TMP DP  RH WIND       PRES   REMARKS
CHANUTE        CLEAR     45  39  79 S5        29.91F
6HR MIN TEMP:  41; 6HR MAX TEMP:  67;

COFFEYVILLE    CLEAR     44  41  89 SE3       29.92F
6HR MIN TEMP:  44; 6HR MAX TEMP:  67;

HUTCHINSON     CLEAR     48  38  68 S8        29.87F
6HR MIN TEMP:  44; 6HR MAX TEMP:  65;

NEWTON         CLEAR     49  39  68 S14       29.88F
PARSONS        CLEAR     41  38  89 CALM      29.92F
6HR MIN TEMP:  41; 6HR MAX TEMP:  68;

WICHITA INTL   CLEAR     44  37  76 S8        29.90F
6HR MIN TEMP:  44; 6HR MAX TEMP:  62;

WICHITA JABRA  CLEAR     51  39  63 S8        29.89F
6HR MIN TEMP:  48; 6HR MAX TEMP:  65;

WINFIELD       CLEAR     44  38  79 S5        29.92F
6HR MIN TEMP:  43; 6HR MAX TEMP:  63;

$$

KSZ007>012-019>026-033>040-048>060-102>105-220700-
NORTHEAST KANSAS

CITY           SKY/WX    TMP DP  RH WIND       PRES   REMARKS
CONCORDIA      CLEAR     53  36  52 S16       29.80F
6HR MIN TEMP:  53; 6HR MAX TEMP:  66;

EMPORIA        CLEAR     45  35  68 S10       29.88F
6HR MIN TEMP:  44; 6HR MAX TEMP:  66;

LAWRENCE       CLEAR     37  31  78 E5        29.87F
6HR MIN TEMP:  36; 6HR MAX TEMP:  66;

MANHATTAN      PTCLDY    40  34  79 CALM      29.84F
6HR MIN TEMP:  39; 6HR MAX TEMP:  62;

OLATHE IND     CLEAR     44  36  73 S6        29.89F
6HR MIN TEMP:  43; 6HR MAX TEMP:  65;

OLATHE EXE     CLEAR     49  39  68 SW6       29.88F
6HR MIN TEMP:  48; 6HR MAX TEMP:  68;

SALINA         CLEAR     53  37  54 S10       29.85F
6HR MIN TEMP:  49; 6HR MAX TEMP:  67;

TOPEKA BILLARD CLEAR     44  34  67 CALM      29.85F
6HR MIN TEMP:  43; 6HR MAX TEMP:  66;

TOPEKA FORBES  CLEAR     44  32  62 S6        29.85F
6HR MIN TEMP:  42; 6HR MAX TEMP:  66;

$$



USA.gov is the U.S. government's official web portal to all federal, state and local government web resources and services.